| time (UTC) | temp C | wind direction | speed KPH | gust KPH | rain 1hr cm | rain 24hr cm | rain mn cm | humidity % | barometer mb |
| 20260906150026 | 23 | 73 | 1.6 | 3.2 | 0.00 | 0.28 | 0.00 | 87 | 1018.5 |
| 20260906144520 | 23 | 100 | 1.6 | 6.4 | 0.00 | 0.28 | 0.00 | 88 | 1018.0 |
| 20260906143034 | 23 | 340 | 1.6 | 8.0 | 0.00 | 0.28 | 0.00 | 89 | 1017.9 |
| 20260906141523 | 23 | 99 | 1.6 | 6.4 | 0.00 | 0.28 | 0.00 | 89 | 1018.0 |
| 20260906140031 | 23 | 82 | 1.6 | 6.4 | 0.00 | 0.28 | 0.00 | 89 | 1017.8 |
| 20260906134524 | 22 | 78 | 0.0 | 4.8 | 0.00 | 0.28 | 0.00 | 91 | 1017.7 |
| 20260906133024 | 22 | 92 | 1.6 | 4.8 | 0.00 | 0.28 | 0.00 | 91 | 1017.8 |
| 20260906131527 | 22 | 197 | 0.0 | 3.2 | 0.00 | 0.28 | 0.00 | 92 | 1017.7 |
| 20260906130032 | 21 | 32 | 0.0 | 1.6 | 0.00 | 0.28 | 0.00 | 93 | 1017.7 |
| 20260906124527 | 21 | 75 | 0.0 | 3.2 | 0.00 | 0.28 | 0.00 | 93 | 1017.5 |
| 20260906123047 | 21 | 75 | 0.0 | 6.4 | 0.00 | 0.28 | 0.00 | 95 | 1017.6 |
| 20260906121519 | 21 | 352 | 0.0 | 1.6 | 0.00 | 0.28 | 0.00 | 96 | 1017.5 |
| 20260906120024 | 21 | 81 | 0.0 | 0.0 | 0.00 | 0.28 | 0.00 | 96 | 1017.4 |
| 20260906114528 | 21 | 81 | 0.0 | 1.6 | 0.00 | 0.28 | 0.00 | 96 | 1017.1 |
| 20260906113034 | 21 | 81 | 0.0 | 1.6 | 0.00 | 0.28 | 0.00 | 96 | 1016.6 |
| 20260906111532 | 21 | 81 | 0.0 | 1.6 | 0.00 | 0.28 | 0.00 | 96 | 1016.6 |
| 20260906110024 | 21 | 81 | 0.0 | 0.0 | 0.00 | 0.28 | 0.00 | 95 | 1016.4 |
| 20260906104526 | 21 | 81 | 0.0 | 1.6 | 0.00 | 0.28 | 0.00 | 95 | 1016.6 |
| 20260906103031 | 21 | 81 | 0.0 | 3.2 | 0.00 | 0.28 | 0.00 | 95 | 1016.5 |
| 20260906101532 | 21 | 130 | 0.0 | 1.6 | 0.00 | 0.28 | 0.00 | 95 | 1016.6 |
| 20260906100032 | 22 | 87 | 0.0 | 1.6 | 0.00 | 0.28 | 0.00 | 95 | 1016.3 |
| 20260906094524 | 22 | 87 | 0.0 | 0.0 | 0.00 | 0.28 | 0.00 | 95 | 1016.2 |
| 20260906093037 | 22 | 87 | 0.0 | 1.6 | 0.00 | 0.28 | 0.00 | 94 | 1015.9 |
| 20260906091510 | 22 | 87 | 0.0 | 1.6 | 0.00 | 0.28 | 0.00 | 94 | 1016.0 |
| 20260906090033 | 22 | 101 | 0.0 | 1.6 | 0.00 | 0.28 | 0.00 | 94 | 1015.8 |
| 20260906084520 | 22 | 110 | 0.0 | 1.6 | 0.00 | 0.28 | 0.00 | 94 | 1015.6 |
| 20260906083032 | 23 | 110 | 0.0 | 1.6 | 0.00 | 0.28 | 0.00 | 93 | 1015.6 |
| 20260906081529 | 23 | 117 | 0.0 | 1.6 | 0.00 | 0.28 | 0.00 | 93 | 1015.6 |
| 20260906080009 | 23 | 89 | 0.0 | 3.2 | 0.00 | 0.28 | 0.00 | 93 | 1015.9 |
| 20260906074514 | 23 | 76 | 0.0 | 3.2 | 0.00 | 0.28 | 0.00 | 92 | 1015.9 |
| 20260906073023 | 23 | 74 | 1.6 | 4.8 | 0.00 | 0.28 | 0.00 | 92 | 1015.8 |
| 20260906071528 | 24 | 83 | 0.0 | 4.8 | 0.00 | 0.28 | 0.00 | 92 | 1015.7 |
| 20260906070036 | 24 | 88 | 0.0 | 3.2 | 0.00 | 0.28 | 0.00 | 91 | 1015.7 |
| 20260906064510 | 24 | 88 | 0.0 | 3.2 | 0.00 | 0.28 | 0.00 | 91 | 1015.8 |
| 20260906063031 | 25 | 88 | 0.0 | 1.6 | 0.00 | 0.28 | 0.00 | 91 | 1015.8 |
| 20260906061525 | 25 | 79 | 0.0 | 3.2 | 0.00 | 0.28 | 0.00 | 91 | 1015.8 |
| 20260906060028 | 25 | 74 | 1.6 | 3.2 | 0.00 | 0.28 | 0.00 | 91 | 1015.8 |
| 20260906054533 | 25 | 76 | 0.0 | 3.2 | 0.00 | 0.28 | 0.00 | 91 | 1015.7 |
| 20260906053012 | 25 | 84 | 1.6 | 4.8 | 0.00 | 0.28 | 0.00 | 91 | 1015.6 |
| 20260906051537 | 25 | 83 | 0.0 | 4.8 | 0.00 | 0.28 | 0.00 | 92 | 1015.6 |
| 20260906050031 | 26 | 78 | 0.0 | 3.2 | 0.00 | 0.28 | 0.00 | 92 | 1015.3 |
| 20260906044529 | 26 | 78 | 0.0 | 1.6 | 0.00 | 0.28 | 0.28 | 91 | 1015.1 |
| 20260906043038 | 26 | 78 | 1.6 | 3.2 | 0.00 | 0.28 | 0.28 | 91 | 1015.0 |
| 20260906041533 | 26 | 63 | 1.6 | 3.2 | 0.00 | 0.28 | 0.28 | 90 | 1014.8 |
| 20260906040033 | 26 | 84 | 1.6 | 3.2 | 0.00 | 0.28 | 0.28 | 90 | 1014.7 |
| 20260906034537 | 26 | 58 | 1.6 | 3.2 | 0.00 | 0.28 | 0.28 | 90 | 1014.4 |
| 20260906033030 | 26 | 4 | 0.0 | 0.0 | 0.00 | 0.28 | 0.28 | 91 | 1014.4 |
| 20260906031538 | 26 | 4 | 0.0 | 0.0 | 0.00 | 0.28 | 0.28 | 89 | 1014.4 |
| 20260906030033 | 27 | 4 | 0.0 | 1.6 | 0.00 | 0.28 | 0.28 | 88 | 1014.4 |
| 20260906024525 | 27 | 4 | 0.0 | 1.6 | 0.00 | 0.28 | 0.28 | 86 | 1014.4 |
| 20260906023029 | 27 | 4 | 0.0 | 1.6 | 0.00 | 0.28 | 0.28 | 84 | 1014.4 |
| 20260906021530 | 28 | 4 | 0.0 | 3.2 | 0.00 | 0.28 | 0.28 | 83 | 1014.2 |
| 20260906020032 | 28 | 3 | 0.0 | 1.6 | 0.00 | 0.28 | 0.28 | 82 | 1014.0 |
| 20260906014535 | 28 | 3 | 0.0 | 1.6 | 0.00 | 0.28 | 0.28 | 82 | 1013.8 |
| 20260906013028 | 27 | 3 | 0.0 | 1.6 | 0.00 | 0.28 | 0.28 | 84 | 1013.7 |
| 20260906011527 | 27 | 3 | 0.0 | 0.0 | 0.00 | 0.28 | 0.28 | 85 | 1013.5 |
| 20260906010033 | 28 | 3 | 0.0 | 0.0 | 0.00 | 0.28 | 0.28 | 82 | 1013.3 |
| 20260906004518 | 29 | 3 | 0.0 | 3.2 | 0.00 | 0.28 | 0.28 | 79 | 1013.3 |
| 20260906003024 | 30 | 51 | 0.0 | 0.0 | 0.00 | 0.28 | 0.28 | 76 | 1013.3 |
| 20260906001527 | 30 | 51 | 0.0 | 1.6 | 0.00 | 0.28 | 0.28 | 75 | 1013.5 |
| 20260906000031 | 30 | 51 | 0.0 | 0.0 | 0.00 | 0.28 | 0.28 | 75 | 1013.3 |
| 20260905234514 | 30 | 51 | 0.0 | 0.0 | 0.00 | 0.28 | 0.28 | 74 | 1013.3 |
| 20260905233018 | 30 | 51 | 0.0 | 0.0 | 0.00 | 0.28 | 0.28 | 72 | 1013.1 |
| 20260905231528 | 31 | 50 | 0.0 | 1.6 | 0.00 | 0.28 | 0.28 | 71 | 1013.2 |
| 20260905230027 | 31 | 51 | 0.0 | 1.6 | 0.00 | 0.28 | 0.28 | 69 | 1013.0 |
| 20260905224531 | 32 | 63 | 0.0 | 4.8 | 0.00 | 0.28 | 0.28 | 65 | 1013.1 |
| 20260905223015 | 34 | 77 | 0.0 | 4.8 | 0.00 | 0.28 | 0.28 | 64 | 1012.9 |
| 20260905221521 | 34 | 82 | 0.0 | 3.2 | 0.00 | 0.28 | 0.28 | 68 | 1013.0 |
| 20260905220026 | 33 | 20 | 0.0 | 1.6 | 0.00 | 0.28 | 0.28 | 70 | 1013.1 |
| 20260905214503 | 32 | 20 | 0.0 | 1.6 | 0.00 | 0.28 | 0.28 | 76 | 1013.1 |
| 20260905213010 | 31 | 20 | 0.0 | 1.6 | 0.28 | 0.28 | 0.28 | 79 | 1013.1 |
| 20260905211516 | 28 | 20 | 0.0 | 1.6 | 0.28 | 0.28 | 0.28 | 87 | 1013.3 |
| 20260905210037 | 27 | 20 | 0.0 | 1.6 | 0.28 | 0.28 | 0.28 | 86 | 1013.4 |
| 20260905204534 | 27 | 20 | 1.6 | 16.1 | 0.28 | 0.28 | 0.28 | 82 | 1013.8 |
| 20260905203005 | 36 | 39 | 3.2 | 8.0 | 0.00 | 0.00 | 0.00 | 54 | 1013.7 |
| 20260905201513 | 36 | 359 | 3.2 | 8.0 | 0.00 | 0.00 | 0.00 | 48 | 1013.6 |
| 20260905200022 | 36 | 50 | 1.6 | 6.4 | 0.00 | 0.00 | 0.00 | 54 | 1013.8 |
| 20260905194526 | 36 | 345 | 1.6 | 6.4 | 0.00 | 0.00 | 0.00 | 50 | 1013.9 |
| 20260905193031 | 35 | 15 | 0.0 | 6.4 | 0.00 | 0.00 | 0.00 | 51 | 1014.1 |
| 20260905191536 | 36 | 126 | 3.2 | 9.7 | 0.00 | 0.00 | 0.00 | 48 | 1014.2 |
| 20260905190013 | 36 | 23 | 3.2 | 9.7 | 0.00 | 0.00 | 0.00 | 50 | 1014.1 |
| 20260905184520 | 36 | 325 | 1.6 | 8.0 | 0.00 | 0.00 | 0.00 | 48 | 1014.2 |
| 20260905183026 | 36 | 250 | 1.6 | 9.7 | 0.00 | 0.00 | 0.00 | 51 | 1014.3 |
| 20260905181528 | 36 | 13 | 1.6 | 6.4 | 0.00 | 0.00 | 0.00 | 48 | 1014.4 |
| 20260905180031 | 36 | 16 | 1.6 | 6.4 | 0.00 | 0.00 | 0.00 | 49 | 1014.5 |
| 20260905174520 | 37 | 238 | 1.6 | 8.0 | 0.00 | 0.00 | 0.00 | 49 | 1014.6 |
| 20260905173018 | 36 | 200 | 1.6 | 6.4 | 0.00 | 0.00 | 0.00 | 48 | 1014.8 |
| 20260905171535 | 36 | 349 | 1.6 | 8.0 | 0.00 | 0.00 | 0.00 | 51 | 1015.1 |
| 20260905170029 | 36 | 18 | 1.6 | 8.0 | 0.00 | 0.00 | 0.00 | 51 | 1015.2 |
| 20260905164539 | 36 | 40 | 1.6 | 4.8 | 0.00 | 0.00 | 0.00 | 52 | 1015.1 |
| 20260905163035 | 35 | 318 | 0.0 | 4.8 | 0.00 | 0.00 | 0.00 | 57 | 1015.0 |
| 20260905161519 | 35 | 28 | 3.2 | 6.4 | 0.00 | 0.00 | 0.00 | 56 | 1015.0 |
| 20260905160027 | 34 | 340 | 1.6 | 4.8 | 0.00 | 0.00 | 0.00 | 59 | 1015.1 |
| 20260905154529 | 33 | 330 | 1.6 | 4.8 | 0.00 | 0.00 | 0.00 | 61 | 1015.1 |
| 20260905153032 | 33 | 281 | 0.0 | 3.2 | 0.00 | 0.00 | 0.00 | 63 | 1015.0 |
| 20260905151536 | 32 | 233 | 0.0 | 4.8 | 0.00 | 0.00 | 0.00 | 69 | 1015.1 |